Flag for Australia Weather past 2 weeks in Hobart, Tasmania, Australia

Now
34 °F

Passing clouds.


Feels Like: 29 °F
Forecast: 27 / 49 °F
Wind: 6 mph from Northwest

Location: Hobart Airport

Current Time: Jul 8, 2015 at 8:01:41 AM

Latest Report: Jul 8, 2015 at 7:30 AM


Visibility: N/A

Pressure: 30.39 "Hg

Humidity: N/A

Dew point: N/A

Location of HobartLocation

Historic Weather in Hobart — Graph

°F

Hobart temperature yesterday

Maximum temperature yesterday: 48 °F (at 12:30 PM)
Minimum temperature yesterday: 36 °F (at 10:30 PM)
Average temperature yesterday: 42 °F

Past Weeks' High & Low Weather Summary

 TemperatureHumidityPressure
High61 °F (Jun 24, 11:00 AM)93% (Jun 23, 6:00 AM)30.36 "Hg (Jun 23, 6:00 AM)
Low32 °F (Jul 8, 5:00 AM)36% (Jul 4, 12:00 PM)29.65 "Hg (Jul 1, 6:30 PM)
Average50 °F65%30.08 "Hg
* Reported Jun 23 6:00 AM — Jul 8 6:30 AM, Hobart, Weather by CustomWeather, © 2015

Note: Actual official high and low records may vary slightly from our data, if they occured in-between our weather recording intervals... More about our weather records

Advertising

Hobart weather history for previous 24 hours

 ConditionsComfort  
Time TempWeatherWind HumidityBarometerVisibility
6:30 AM
Wed, Jul 8
34 °FClear.8 mph93%30.36 "HgN/A
6:00 AM34 °FClear.9 mph87%30.36 "HgN/A
5:30 AM34 °FClear.9 mph87%30.36 "HgN/A
5:00 AM32 °FClear.8 mphN/A30.36 "HgN/A
4:30 AM34 °FClear.7 mph93%30.36 "HgN/A
4:00 AM34 °FClear.7 mph93%30.36 "HgN/A
3:30 AM34 °FClear.7 mph93%30.36 "HgN/A
3:00 AM36 °FClear.8 mph87%30.36 "HgN/A
2:30 AM36 °FClear.6 mph93%30.36 "HgN/A
2:00 AM36 °FClear.6 mph93%30.36 "HgN/A
1:30 AM36 °FClear.6 mph93%30.36 "HgN/A
1:00 AM36 °FClear.6 mph93%30.36 "HgN/A
12:30 AM37 °FClear.6 mph93%30.36 "HgN/A
12:00 AM37 °FClear.6 mph93%30.36 "HgN/A
11:30 PM
Tue, Jul 7
37 °FClear.6 mph93%30.36 "HgN/A
11:00 PM36 °FClear.6 mph93%30.36 "HgN/A
10:30 PM36 °FClear.No wind93%30.36 "HgN/A
10:00 PM37 °FPassing clouds.1 mph93%30.36 "HgN/A
9:30 PM39 °FOvercast.1 mph93%30.36 "HgN/A
9:00 PM39 °FOvercast.1 mph87%30.36 "HgN/A
8:30 PM41 °FOvercast.5 mph93%30.36 "HgN/A
8:00 PM41 °FOvercast.5 mph87%30.36 "HgN/A
7:30 PM41 °FPassing clouds.2 mph87%30.33 "HgN/A
7:00 PM43 °FPassing clouds.5 mph87%30.33 "HgN/A
6:30 PM45 °FPassing clouds.No wind81%30.33 "HgN/A
6:00 PM45 °FPassing clouds.1 mph81%30.33 "HgN/A
5:30 PM45 °FScattered showers. Passing clouds.3 mph76%30.33 "HgN/A
5:00 PM46 °FPassing clouds.5 mph71%30.33 "HgN/A
4:30 PM46 °FPassing clouds.5 mph66%30.30 "HgN/A
4:00 PM46 °FPassing clouds.6 mph71%30.30 "HgN/A
3:30 PM48 °FScattered clouds.6 mph62%30.30 "HgN/A
3:00 PM48 °FPassing clouds.5 mph62%30.30 "HgN/A
2:30 PM46 °FScattered clouds.6 mph62%30.27 "HgN/A
2:00 PM46 °FScattered clouds.6 mph66%30.27 "HgN/A
1:30 PM46 °FScattered clouds.5 mph66%30.27 "HgN/A
12:30 PM48 °FScattered clouds.8 mph66%30.30 "HgN/A
12:00 PM46 °FPassing clouds.9 mph71%30.30 "HgN/A
11:30 AM45 °FPassing clouds.10 mph81%30.30 "HgN/A
11:00 AM43 °FScattered showers. Scattered clouds.12 mph81%30.30 "HgN/A
10:30 AM43 °FPartly sunny.10 mph87%30.30 "HgN/A
10:00 AM41 °FScattered showers. Broken clouds.10 mph87%30.30 "HgN/A
9:30 AM41 °FScattered showers. Scattered clouds.10 mph87%30.30 "HgN/A
9:00 AM39 °FSprinkles. Partly sunny.9 mph93%30.27 "HgN/A
8:30 AM39 °FScattered showers. Partly sunny.10 mph93%30.27 "HgN/A
8:00 AM39 °FSprinkles. Partly sunny.10 mph93%30.27 "HgN/A
Weather by CustomWeather, © 2015

See weather overviewHow to use our weather pages